[[[{"header":{"parameterUnit":"kt","parameterCategory":2,"dx":1,"dy":1,"la1":30.253999710083008,"la2":30.299108505249023,"lo1":-89.0895004272461,"lo2":-89.04439544677734,"nx":28,"ny":28,"refTime":"2022-10-12T21:00:00:Z","depth":"0","parameterNumber":2,"parameterNumberName":"U-component_of_CURRENTS"},"data":[0.018,0.0193,0.0269,0.0272,0.029,0.0274,0.0273,0.031,0.0322,0.0375,0.044,0.0469,0.0162,-0.0577,-0.1042,-0.1111,-0.1135,-0.1113,-0.1196,-0.1186,-0.1196,-0.1205,-0.1108,-0.1115,-0.1116,-0.1094,-0.1095,-0.1095,0.0263,0.0332,0.0343,0.0323,0.0299,0.0294,0.0234,0.0225,0.0177,0.0142,0.0112,0.0114,-0.0166,-0.0502,-0.0886,-0.104,-0.1056,-0.1137,-0.113,-0.1098,-0.1098,-0.099,-0.0972,-0.0972,-0.0972,-0.0972,-0.0972,-0.0972,0.0402,0.0405,0.0395,0.0374,0.0324,0.0291,0.0256,0.016,0.0063,-0.0062,-0.0129,-0.0181,-0.0386,-0.074,-0.0963,-0.1197,-0.1224,-0.1212,-0.1256,-0.1293,-0.1164,-0.1116,-0.1194,-0.1196,-0.1197,-0.1198,-0.12,0,0.0444,0.0474,0.0422,0.0396,0.0342,0.0258,0.0142,0.0089,-0.0127,-0.0217,-0.0327,-0.0424,-0.0686,-0.079,-0.1097,-0.124,-0.1334,-0.1373,-0.1435,-0.1175,-0.1164,-0.1124,-0.1112,-0.1217,-0.1219,-0.122,-0.1221,-0.1222,0.0488,0.0478,0.0399,0.0364,0.0314,0.0204,0.011,-0.0076,-0.0173,-0.0396,-0.0444,-0.0629,-0.0752,-0.103,-0.1156,-0.1381,-0.1439,-0.1413,-0.1302,-0.132,-0.1357,-0.1374,-0.1324,-0.1242,-0.1239,-0.1237,-0.1235,0,0.0499,0.0456,0.0382,0.024,0.02,0.0125,-0.0053,-0.0158,-0.0319,-0.0451,-0.0489,-0.0679,-0.0829,-0.1011,-0.1194,-0.1246,-0.1381,-0.1448,-0.1296,-0.1292,-0.131,-0.1327,-0.1504,-0.146,-0.154,-0.154,-0.154,0,0.0454,0.0406,0.033,0.0292,0.0167,0.0034,-0.011,-0.0262,-0.0431,-0.0538,-0.0676,-0.0744,-0.0869,-0.0992,-0.1086,-0.1209,-0.126,-0.126,-0.1281,-0.1151,-0.1135,-0.1165,-0.1175,-0.1334,-0.1332,-0.133,-0.1329,0,0.0502,0.0369,0.0297,0.0245,0.0055,-0.0021,-0.0151,-0.0355,-0.0468,-0.0633,-0.0687,-0.082,-0.0844,-0.0958,-0.1036,-0.0994,-0.1198,-0.1162,-0.1226,-0.1224,-0.1127,-0.111,-0.127,-0.1326,-0.1326,-0.1325,-0.1325,0,0.0479,0.0425,0.0315,0.0181,0.0147,0.002,-0.0187,-0.0356,-0.0545,-0.0619,-0.0707,-0.0746,-0.0842,-0.0798,-0.0952,-0.0875,-0.0956,-0.0998,-0.1007,-0.0931,-0.0905,-0.0987,-0.1067,-0.1099,-0.1111,-0.1108,-0.1106,0,0.0551,0.0457,0.0407,0.0254,0.02,0.0096,-0.0094,-0.0246,-0.0365,-0.0513,-0.0568,-0.0688,-0.0674,-0.0688,-0.075,-0.0786,-0.0888,-0.0783,-0.0924,-0.0929,-0.0894,-0.0982,-0.0848,-0.1033,-0.1075,-0.1078,-0.108,0,0.0635,0.0573,0.0571,0.0529,0.0379,0.0309,0.0103,-0.0064,-0.0152,-0.0323,-0.0441,-0.0618,-0.0585,-0.065,-0.0672,-0.0724,-0.0841,-0.0689,-0.0691,-0.0807,-0.1006,-0.0947,-0.0963,-0.0822,-0.0825,-0.0827,-0.1056,0,0.0656,0.0651,0.0629,0.0543,0.0452,0.0377,0.0265,0.0135,0.006,-0.0048,-0.0206,-0.035,-0.0482,-0.05,-0.0549,-0.0639,-0.064,-0.0612,-0.0613,-0.0654,-0.0746,-0.0766,-0.0511,-0.0509,-0.0508,-0.0507,0,0,0.0752,0.0755,0.0771,0.0708,0.0649,0.0616,0.0522,0.0382,0.0173,0.0103,0.0085,-0.0186,-0.0285,-0.0458,-0.0491,-0.0532,-0.0565,-0.0526,-0.0611,-0.0623,-0.0634,-0.0725,-0.0745,-0.0505,-0.0505,-0.0504,-0.0504,0,0.0778,0.0843,0.0817,0.0757,0.0708,0.0613,0.0623,0.0486,0.0378,0.0171,0.0093,-0.0008,-0.0244,-0.0359,-0.0429,-0.0513,-0.0536,-0.0491,-0.0533,-0.0599,-0.0613,-0.0624,-0.0716,-0.0736,-0.0501,-0.0501,-0.0501,0,0.0825,0.0844,0.0851,0.083,0.0764,0.0655,0.0668,0.0582,0.0446,0.0348,0.0086,0.0012,-0.0113,-0.0298,-0.036,-0.0352,-0.0521,-0.046,-0.0465,-0.0463,-0.0531,-0.0545,-0.0557,-0.0406,-0.0407,-0.0407,0,0,0.0833,0.0845,0.0834,0.0841,0.0829,0.0723,0.0655,0.0579,0.0436,0.0345,0.0183,0.0051,-0.0079,-0.0167,-0.0303,-0.0442,-0.0472,-0.0453,-0.0458,-0.0462,-0.0462,-0.053,-0.0543,-0.0407,-0.0407,-0.0407,0,0,0.0808,0.0839,0.0862,0.0884,0.0804,0.0654,0.0573,0.0531,0.0325,0.0315,0.016,0.0108,-0.0049,-0.0102,-0.0097,-0.0282,-0.0253,-0.026,-0.0298,-0.0305,-0.0309,-0.0289,-0.0156,0,0,0,0,0,0.0855,0.0865,0.089,0.0897,0.0807,0.0689,0.0645,0.0502,0.0511,0.0417,0.0255,0.0226,-0.0145,-0.0147,-0.0186,-0.0219,-0.0413,-0.0412,-0.0411,-0.049,-0.0496,-0.05,0,0,0,0,0,0,0.0858,0.0874,0.0887,0.0782,0.076,0.0687,0.063,0.0581,0.0512,0.0491,0.0252,0.0218,0.0075,-0.0131,-0.0166,-0.0195,-0.0145,-0.0412,-0.0412,-0.0411,-0.0492,-0.0497,-0.05,0,0,0,0,0,0.086,0.0872,0.0815,0.0769,0.075,0.0582,0.0627,0.0587,0.0485,0.0309,0.0267,0.0399,0.0078,0.0039,-0.0152,-0.0176,-0.0121,-0.0134,-0.0412,-0.0411,-0.0411,-0.0494,0,0,0,0,0,0,0.0862,0.0725,0.08,0.0782,0.0791,0.0572,0.055,0.0593,0.0299,0.0265,0.045,0.0439,0.0079,0.0049,0.002,-0.0165,-0.0102,-0.0115,-0.0123,-0.0411,-0.0411,-0.041,0,0,0,0,0,0,0.0719,0.0711,0.0788,0.0826,0.0808,0.0565,0.0547,0.0419,0.0299,0.0446,0.0433,0.045,0.0175,0.0055,0.0032,-0.0171,-0.0087,-0.01,-0.0108,-0.0114,-0.0411,-0.041,0,0,0,0,0,0,0.0709,0.0701,0.0826,0.0813,0.0796,0.054,0.0441,0.0364,0.0317,0.0458,0.0317,0.0318,0.0188,0.0157,0.0042,-0.0152,-0.0166,-0.0088,-0.0096,-0.0102,-0.0106,0,0,0,0,0,0,0,0.07,0.0844,0.0961,0.0802,0.0787,0.0617,0.0607,0.0597,0.0317,0.0317,0.0317,0.0318,-0.0017,-0.003,-0.0044,-0.0136,0,0,-0.0086,-0.0092,0,0,0,0,0,0,0,0,0.0838,0.0842,0.0961,0.096,0.0959,0.0616,0.0607,0.0599,0.0317,0.0317,0.0317,0.0317,-0.002,-0.0031,-0.0042,0,0,0,0,0,0,0,0,0,0,0,0,0,0,0,0.0961,0.096,0,0.0615,0.0608,0.0601,0.0317,0.0317,0.0317,0.0317,-0.0023,-0.0032,-0.0042,0,0,0,0,0,0,0,0,0,0,0,0,0,0,0,0,0,0,0,0,0,0,0,0,0,0,0,0,0,0,0,0,0,0,0,0,0,0,0,0,0,0,0,0,0,0,0,0,0,0,0,0,0,0,0,0,0,0,0,0,0,0,0,0,0,0,0,0,0]}],[{"header":{"parameterUnit":"kt","parameterCategory":2,"dx":1,"dy":1,"la1":30.253999710083008,"la2":30.299108505249023,"lo1":-89.0895004272461,"lo2":-89.04439544677734,"nx":28,"ny":28,"refTime":"2022-10-12T21:00:00:Z","depth":"0","parameterNumber":3,"parameterNumberName":"V-component_of_CURRENTS"},"data":[-0.0859,-0.0921,-0.0947,-0.1048,-0.11,-0.1155,-0.1192,-0.1215,-0.1214,-0.1103,-0.0936,-0.0837,0.0174,0.1501,0.2346,0.2403,0.2516,0.2509,0.2537,0.2187,0.2123,0.2062,0.2166,0.2669,0.267,0.3008,0.3011,0.3014,-0.0826,-0.0851,-0.093,-0.1031,-0.1094,-0.1127,-0.1214,-0.1239,-0.1288,-0.1284,-0.1315,-0.0827,-0.0113,0.0509,0.1597,0.186,0.1838,0.1947,0.1918,0.1955,0.15,0.1597,0.1988,0.1988,0.1988,0.1988,0.1988,0.1987,-0.075,-0.0806,-0.087,-0.0976,-0.1055,-0.1128,-0.1179,-0.1242,-0.1295,-0.1295,-0.136,-0.1303,-0.0643,0.008,0.0295,0.1058,0.0931,0.1292,0.1294,0.1257,0.1444,0.1001,0.1201,0.1199,0.1197,0.1196,0.1195,0,-0.0698,-0.0727,-0.0812,-0.0916,-0.1,-0.1096,-0.117,-0.1211,-0.1224,-0.1243,-0.1287,-0.1276,-0.0943,-0.0535,-0.0017,0.0195,0.0529,0.05,0.064,0.0978,0.1051,0.1193,0.0593,0.0655,0.065,0.0646,0.0643,0.0641,-0.0606,-0.0676,-0.0811,-0.0876,-0.0947,-0.1039,-0.1086,-0.1109,-0.1128,-0.1137,-0.1147,-0.1063,-0.1011,-0.0738,-0.0327,-0.0019,0.011,0.0364,0.0473,0.0685,0.0763,0.0764,0.0851,0.0588,0.0595,0.06,0.0605,0,-0.0567,-0.0637,-0.077,-0.0887,-0.0923,-0.0985,-0.1063,-0.1079,-0.1057,-0.1057,-0.104,-0.0971,-0.0885,-0.0719,-0.0588,-0.0358,-0.005,-0.0057,0.0081,0.0161,0.0651,0.0686,0.0802,0.092,0.0246,0.0251,0.0255,0,-0.0533,-0.0636,-0.0734,-0.0806,-0.0906,-0.0941,-0.0993,-0.0979,-0.0962,-0.0947,-0.0832,-0.0833,-0.0705,-0.0638,-0.0485,-0.0271,-0.0418,-0.0021,0.0039,0.0138,0.0169,0.0389,0.044,-0.025,-0.025,-0.0251,-0.0251,0,-0.0434,-0.0619,-0.0712,-0.0768,-0.0869,-0.0902,-0.0921,-0.0874,-0.0857,-0.0783,-0.0756,-0.069,-0.0643,-0.0576,-0.0386,-0.036,-0.0344,-0.0282,0.0018,0.0035,0.0209,0.0249,0.0296,-0.0251,-0.0251,-0.0251,-0.0251,0,-0.0414,-0.05,-0.0646,-0.0738,-0.0767,-0.0834,-0.0829,-0.0843,-0.0765,-0.0687,-0.0616,-0.0481,-0.0458,-0.0344,-0.0299,-0.0289,-0.0172,-0.0107,-0.0105,0.0177,0.0305,0.0434,0.0333,0.0506,-0.001,-0.0009,-0.0007,0,-0.0281,-0.0438,-0.0466,-0.0616,-0.0689,-0.0664,-0.0692,-0.0653,-0.0569,-0.0523,-0.0396,-0.0299,-0.0178,-0.0113,-0.0133,-0.0012,-0.0031,0.0004,0.0102,0.0106,0.0319,0.0183,0.031,0.034,0.0009,0.0008,0.0006,0,-0.0155,-0.0273,-0.0302,-0.0347,-0.0411,-0.0451,-0.0484,-0.0465,-0.0438,-0.0366,-0.0332,-0.0188,-0.0079,-0.0,0.0122,0.0089,0.0008,0.0184,0.0188,0.0195,-0.0038,0.0182,0.0192,0.0022,0.0019,0.0017,0.002,0,-0.0054,-0.013,-0.0197,-0.026,-0.03,-0.0379,-0.0341,-0.033,-0.0232,-0.0152,-0.007,0.0083,0.0209,0.0226,0.0356,0.03,0.0354,0.0408,0.0486,0.0341,0.0367,0.0355,0.0554,0.0558,0.0562,0.0565,0,0,0.0101,0.0029,0.0039,-0.0049,-0.0089,-0.0021,-0.0098,-0.0064,0.0017,0.0073,0.0145,0.0342,0.0475,0.0523,0.0505,0.0557,0.057,0.0571,0.0415,0.0398,0.0382,0.0398,0.0383,0.0571,0.0572,0.0573,0.0575,0,0.0157,0.0154,0.008,0.0037,0.0004,0.0034,0.0011,0.0048,0.0112,0.0155,0.0335,0.0421,0.0554,0.0646,0.0714,0.0607,0.0706,0.062,0.047,0.0445,0.0423,0.0405,0.0415,0.0398,0.0583,0.0583,0.0582,0,0.0276,0.0267,0.0237,0.0195,0.0195,0.0136,0.0255,0.0214,0.0212,0.0438,0.0495,0.0625,0.0775,0.0808,0.0835,0.0871,0.0808,0.0854,0.0837,0.0844,0.0826,0.08,0.0776,0.1079,0.108,0.1081,0,0,0.0323,0.0275,0.0273,0.0211,0.019,0.0244,0.0233,0.0289,0.0368,0.0417,0.0549,0.0683,0.0786,0.0832,0.0936,0.0936,0.0983,0.0908,0.0885,0.0865,0.0861,0.0838,0.0812,0.1085,0.1085,0.1085,0,0,0.0357,0.0348,0.0385,0.0318,0.0294,0.0335,0.0297,0.0365,0.0463,0.0513,0.0701,0.0746,0.0813,0.089,0.0924,0.0941,0.1043,0.104,0.088,0.0853,0.083,0.0807,0.1079,0,0,0,0,0,0.0405,0.0334,0.0366,0.0357,0.0363,0.0305,0.031,0.0392,0.0485,0.0453,0.0619,0.0726,0.0941,0.0976,0.1005,0.0951,0.1135,0.1126,0.1118,0.0917,0.0887,0.0861,0,0,0,0,0,0,0.0402,0.0393,0.0367,0.0399,0.0399,0.0312,0.0462,0.0485,0.049,0.0511,0.0693,0.0731,0.0861,0.097,0.0995,0.0939,0.1071,0.1132,0.1124,0.1118,0.0906,0.0882,0.086,0,0,0,0,0,0.0399,0.0392,0.0381,0.0403,0.0403,0.0475,0.0468,0.0488,0.0521,0.0671,0.071,0.0577,0.0855,0.0889,0.0986,0.0924,0.1055,0.1064,0.1127,0.1121,0.1116,0.0894,0,0,0,0,0,0,0.0397,0.0443,0.0384,0.0386,0.0441,0.0483,0.0495,0.049,0.0689,0.0717,0.0566,0.0579,0.085,0.0877,0.0902,0.0909,0.1042,0.1051,0.1056,0.1122,0.1118,0.1114,0,0,0,0,0,0,0.0445,0.0445,0.0386,0.043,0.044,0.049,0.05,0.0574,0.0696,0.058,0.0592,0.057,0.0847,0.0868,0.0889,0.0997,0.1032,0.104,0.1046,0.105,0.1119,0.1115,0,0,0,0,0,0,0.0447,0.0447,0.0432,0.0439,0.0448,0.0497,0.0565,0.0602,0.0621,0.0576,0.0634,0.0639,0.0837,0.0859,0.0878,0.0976,0.0992,0.1032,0.1038,0.1042,0.1045,0,0,0,0,0,0,0,0.0448,0.0429,0.0346,0.0446,0.0455,0.0403,0.0406,0.0409,0.0622,0.0627,0.0632,0.0637,0.0984,0.0993,0.1002,0.096,0,0,0.1031,0.1035,0,0,0,0,0,0,0,0,0.0431,0.0429,0.0346,0.0345,0.0344,0.0404,0.0406,0.0409,0.0623,0.0627,0.0631,0.0635,0.0986,0.0994,0.1001,0,0,0,0,0,0,0,0,0,0,0,0,0,0,0,0.0346,0.0345,0,0.0404,0.0406,0.0408,0.0624,0.0627,0.063,0.0634,0.0988,0.0995,0.1001,0,0,0,0,0,0,0,0,0,0,0,0,0,0,0,0,0,0,0,0,0,0,0,0,0,0,0,0,0,0,0,0,0,0,0,0,0,0,0,0,0,0,0,0,0,0,0,0,0,0,0,0,0,0,0,0,0,0,0,0,0,0,0,0,0,0,0,0,0]}]],[[{"header":{"parameterUnit":"kt","parameterCategory":2,"dx":1,"dy":1,"la1":30.253999710083008,"la2":30.299108505249023,"lo1":-89.0895004272461,"lo2":-89.04439544677734,"nx":28,"ny":28,"refTime":"2022-10-12T21:00:00:Z","depth":"2","parameterNumber":2,"parameterNumberName":"U-component_of_CURRENTS"},"data":[-0.4634,-0.4549,-0.4515,-0.4177,-0.4063,-0.3719,-0.3551,-0.3284,-0.308,-0.2582,-0.2278,-0.2291,-0.2176,-0.1692,-0.1501,-0.1196,-0.1389,-0.11,-0.1759,-0.1928,-0.1984,-0.2027,-0.2049,0,0,0,0,0,-0.4738,-0.4749,-0.4713,-0.4621,-0.4397,-0.4423,-0.4211,-0.3982,-0.3665,-0.3443,-0.3165,-0.2617,-0.2272,-0.2079,-0.1606,-0.1492,-0.151,-0.1409,-0.1486,-0.1549,-0.1606,-0.1575,-0.0986,-0.0983,-0.0981,-0.0979,0,0,-0.4912,-0.493,-0.497,-0.4912,-0.483,-0.4659,-0.4493,-0.4372,-0.4148,-0.3821,-0.3815,-0.3385,-0.3222,-0.2526,-0.2265,-0.2015,-0.2236,-0.2152,-0.218,-0.2214,-0.2207,-0.2255,-0.179,-0.1793,-0.1796,-0.1798,-0.18,0,-0.4973,-0.5056,-0.512,-0.5132,-0.5073,-0.4984,-0.4856,-0.4771,-0.4643,-0.4469,-0.4198,-0.4007,-0.356,-0.3107,-0.2763,-0.259,-0.2722,-0.2524,-0.3019,-0.2652,-0.2713,-0.268,-0.2732,-0.2331,-0.2338,-0.2342,-0.2346,-0.2348,-0.5012,-0.5081,-0.527,-0.5264,-0.5315,-0.5265,-0.515,-0.5093,-0.4948,-0.4742,-0.459,-0.4318,-0.4034,-0.3559,-0.3295,-0.301,-0.317,-0.268,-0.2753,-0.3312,-0.327,-0.3304,-0.3335,-0.2418,-0.2409,-0.2402,-0.2396,0,-0.5038,-0.5182,-0.5314,-0.5439,-0.5437,-0.5406,-0.5297,-0.5154,-0.5076,-0.4846,-0.479,-0.458,-0.4279,-0.4095,-0.3782,-0.3666,-0.3424,-0.3312,-0.317,-0.3078,-0.3357,-0.3381,-0.3036,-0.3029,-0.3023,-0.3018,-0.3013,0,-0.5143,-0.5249,-0.5421,-0.5481,-0.5462,-0.5492,-0.5362,-0.5296,-0.514,-0.4957,-0.4885,-0.47,-0.4509,-0.4278,-0.4166,-0.3821,-0.3825,-0.3671,-0.3592,-0.343,-0.3409,-0.3814,-0.3827,-0.3718,-0.372,-0.3722,-0.3724,0,-0.5182,-0.5372,-0.5449,-0.5496,-0.5568,-0.5528,-0.5489,-0.5351,-0.5244,-0.5065,-0.493,-0.475,-0.458,-0.4427,-0.4223,-0.4287,-0.3902,-0.3935,-0.3702,-0.3694,-0.3382,-0.3352,-0.3726,-0.3726,-0.3726,-0.3727,-0.3728,0,-0.5247,-0.5373,-0.5498,-0.5533,-0.5547,-0.5563,-0.5439,-0.5409,-0.522,-0.5105,-0.4938,-0.4824,-0.4666,-0.4653,-0.4372,-0.4463,-0.4334,-0.4229,-0.4215,-0.4016,-0.3976,-0.3548,-0.3423,-0.4072,-0.4075,-0.4079,-0.4081,0,-0.5206,-0.537,-0.5413,-0.5513,-0.5575,-0.5532,-0.5513,-0.5419,-0.5302,-0.5138,-0.4988,-0.4855,-0.4841,-0.4751,-0.4648,-0.4491,-0.4393,-0.4529,-0.4167,-0.4157,-0.4012,-0.3963,-0.3734,-0.3494,-0.4123,-0.4118,-0.4115,0,-0.5133,-0.529,-0.5324,-0.5375,-0.5446,-0.5445,-0.5437,-0.5375,-0.5261,-0.5154,-0.4997,-0.4934,-0.4792,-0.474,-0.4669,-0.4566,-0.4459,-0.4522,-0.4511,-0.4405,-0.4168,-0.4038,-0.3998,-0.439,-0.4385,-0.4382,-0.4148,0,-0.5135,-0.5225,-0.5263,-0.5386,-0.5405,-0.5424,-0.541,-0.5334,-0.5205,-0.5103,-0.4965,-0.4866,-0.4708,-0.4701,-0.4683,-0.4577,-0.4553,-0.45,-0.4391,-0.443,-0.4332,-0.4308,-0.4566,-0.4563,-0.4561,-0.456,0,0,-0.5064,-0.5148,-0.5178,-0.5269,-0.5286,-0.5228,-0.5272,-0.5215,-0.5094,-0.4999,-0.494,-0.4741,-0.466,-0.4577,-0.4597,-0.459,-0.4511,-0.4524,-0.4451,-0.4441,-0.4429,-0.4336,-0.4314,-0.4556,-0.4556,-0.4555,-0.4554,0,-0.5062,-0.5092,-0.5163,-0.5212,-0.5247,-0.5209,-0.5208,-0.5119,-0.5007,-0.4975,-0.4814,-0.4711,-0.4646,-0.4531,-0.4488,-0.4574,-0.441,-0.4565,-0.459,-0.444,-0.4432,-0.4424,-0.4332,-0.4314,-0.4549,-0.455,-0.455,0,-0.504,-0.5081,-0.5105,-0.517,-0.5164,-0.5204,-0.5058,-0.5009,-0.4977,-0.4805,-0.4679,-0.4595,-0.4507,-0.4469,-0.4437,-0.4389,-0.431,-0.4374,-0.4384,-0.4354,-0.4192,-0.4186,-0.418,-0.4237,-0.4236,-0.4235,0,0,-0.5056,-0.5106,-0.5144,-0.5173,-0.5197,-0.5116,-0.5082,-0.4971,-0.4876,-0.4796,-0.4658,-0.4533,-0.4484,-0.4421,-0.4367,-0.4371,-0.4263,-0.4338,-0.4353,-0.4365,-0.4343,-0.4186,-0.4182,-0.4232,-0.4232,-0.4232,0,0,-0.5011,-0.5063,-0.5088,-0.5103,-0.5131,-0.5032,-0.4996,-0.4896,-0.4769,-0.4685,-0.4529,-0.449,-0.4438,-0.4375,-0.4354,-0.4283,-0.4221,-0.4225,-0.4308,-0.4325,-0.4339,-0.4316,-0.4164,0,0,0,0,0,-0.5092,-0.5101,-0.513,-0.5136,-0.509,-0.5098,-0.5076,-0.489,-0.4744,-0.4725,-0.4583,-0.4452,-0.4313,-0.4292,-0.4279,-0.4252,-0.4194,-0.4201,-0.4207,-0.4316,-0.4336,-0.4352,0,0,0,0,0,0,-0.5095,-0.5107,-0.5128,-0.5058,-0.5046,-0.5092,-0.4885,-0.4834,-0.4739,-0.4697,-0.4489,-0.4451,-0.4336,-0.429,-0.428,-0.4255,-0.4167,-0.4197,-0.4202,-0.4207,-0.4323,-0.4339,-0.4352,0,0,0,0,0,-0.5096,-0.5105,-0.5086,-0.5049,-0.5039,-0.4846,-0.4875,-0.483,-0.4702,-0.4577,-0.4527,-0.4558,-0.4346,-0.4321,-0.4283,-0.4262,-0.4173,-0.417,-0.42,-0.4205,-0.4209,-0.4331,0,0,0,0,0,0,-0.5097,-0.5018,-0.5078,-0.5066,-0.4973,-0.4831,-0.4804,-0.4829,-0.4578,-0.4537,-0.4649,-0.4621,-0.4354,-0.4333,-0.4316,-0.4269,-0.4178,-0.4175,-0.4173,-0.4204,-0.4207,-0.421,0,0,0,0,0,0,-0.5013,-0.501,-0.507,-0.4985,-0.4961,-0.4819,-0.4796,-0.4797,-0.4577,-0.4655,-0.4629,-0.464,-0.4387,-0.4344,-0.4329,-0.4336,-0.4182,-0.4179,-0.4176,-0.4175,-0.4207,-0.4209,0,0,0,0,0,0,-0.5007,-0.5004,-0.4985,-0.4967,-0.4944,-0.4782,-0.4811,-0.4759,-0.4541,-0.4667,-0.4516,-0.4504,-0.4403,-0.4382,-0.4339,-0.4354,-0.4341,-0.4182,-0.4179,-0.4178,-0.4177,0,0,0,0,0,0,0,-0.5003,-0.5083,-0.5173,-0.4951,-0.4931,-0.4965,-0.496,-0.4954,-0.4538,-0.4528,-0.4519,-0.4509,-0.4199,-0.4196,-0.4193,-0.4369,0,0,-0.4182,-0.418,0,0,0,0,0,0,0,0,-0.5079,-0.5082,-0.5173,-0.5172,-0.5171,-0.4965,-0.496,-0.4955,-0.4537,-0.4529,-0.4521,-0.4513,-0.4198,-0.4196,-0.4193,0,0,0,0,0,0,0,0,0,0,0,0,0,0,0,-0.5173,-0.5172,0,-0.4964,-0.496,-0.4956,-0.4536,-0.4529,-0.4522,-0.4516,-0.4198,-0.4195,-0.4193,0,0,0,0,0,0,0,0,0,0,0,0,0,0,0,0,0,0,0,0,0,0,0,0,0,0,0,0,0,0,0,0,0,0,0,0,0,0,0,0,0,0,0,0,0,0,0,0,0,0,0,0,0,0,0,0,0,0,0,0,0,0,0,0,0,0,0,0,0]}],[{"header":{"parameterUnit":"kt","parameterCategory":2,"dx":1,"dy":1,"la1":30.253999710083008,"la2":30.299108505249023,"lo1":-89.0895004272461,"lo2":-89.04439544677734,"nx":28,"ny":28,"refTime":"2022-10-12T21:00:00:Z","depth":"2","parameterNumber":3,"parameterNumberName":"V-component_of_CURRENTS"},"data":[-0.1393,-0.1507,-0.1527,-0.1566,-0.1564,-0.1486,-0.1408,-0.1264,-0.0973,-0.0661,-0.0313,0.0146,0.0531,0.0609,0.073,0.082,0.0809,0.0788,0.0873,0.0828,0.083,0.0924,0.0956,0,0,0,0,0,-0.1325,-0.1394,-0.1463,-0.1492,-0.1481,-0.1436,-0.1305,-0.1204,-0.1041,-0.0673,-0.0385,-0.0007,0.0376,0.0659,0.0829,0.0932,0.0902,0.0912,0.0883,0.0887,0.089,0.0907,0.0852,0.0852,0.0852,0.0851,0,0,-0.12,-0.1274,-0.1328,-0.1371,-0.1368,-0.131,-0.1268,-0.1127,-0.0968,-0.0657,-0.0419,-0.0026,0.0267,0.0697,0.0811,0.0902,0.0946,0.0973,0.0973,0.0973,0.0996,0.0926,0.0964,0.0965,0.0965,0.0965,0.0966,0,-0.1074,-0.1097,-0.1143,-0.1201,-0.1211,-0.1168,-0.1098,-0.1026,-0.0763,-0.0601,-0.0335,-0.0106,0.0261,0.0553,0.0793,0.0881,0.094,0.0948,0.0974,0.0981,0.0902,0.0875,0.0868,0.0941,0.0941,0.0941,0.0941,0.0942,-0.0904,-0.0968,-0.0983,-0.1012,-0.1026,-0.1012,-0.0967,-0.0779,-0.0651,-0.0346,-0.0257,-0.0006,0.026,0.0553,0.0751,0.0926,0.0958,0.095,0.1014,0.0977,0.0951,0.0941,0.0932,0.0945,0.0945,0.0944,0.0944,0,-0.0812,-0.081,-0.0869,-0.0825,-0.0813,-0.0828,-0.0717,-0.0614,-0.0436,-0.0259,-0.0206,0.0137,0.033,0.0553,0.0751,0.0843,0.0978,0.1001,0.089,0.0869,0.0935,0.0926,0.1028,0.1029,0.1029,0.1029,0.103,0,-0.0663,-0.0703,-0.0686,-0.0733,-0.0727,-0.0638,-0.0562,-0.0428,-0.0218,-0.008,0.0163,0.0308,0.0541,0.0681,0.078,0.0897,0.0915,0.1002,0.0987,0.0945,0.0935,0.0986,0.0978,0.1062,0.1063,0.1063,0.1063,0,-0.0553,-0.0572,-0.062,-0.0624,-0.0558,-0.0518,-0.0455,-0.0222,-0.0106,0.0136,0.0205,0.0477,0.055,0.0673,0.0799,0.0788,0.094,0.0945,0.0968,0.0961,0.0968,0.0959,0.1064,0.1064,0.1064,0.1064,0.1065,0,-0.0457,-0.0489,-0.055,-0.0503,-0.0499,-0.0482,-0.03,-0.0207,0.006,0.0144,0.0333,0.0461,0.0681,0.0652,0.0855,0.0797,0.0818,0.0871,0.087,0.0908,0.0843,0.0687,0.0802,0.0778,0.0776,0.0775,0.0774,0,-0.037,-0.0446,-0.0423,-0.0442,-0.0475,-0.0375,-0.0271,-0.0134,-0.0018,0.0119,0.0329,0.0466,0.0522,0.0568,0.0677,0.0794,0.0838,0.081,0.0819,0.082,0.0734,0.0868,0.0829,0.0782,0.0758,0.0759,0.076,0,-0.0314,-0.0356,-0.0369,-0.0392,-0.0374,-0.0359,-0.0244,-0.0126,-0.0035,0.0036,0.0157,0.0416,0.0455,0.0574,0.0688,0.0767,0.0803,0.0711,0.0715,0.0593,0.084,0.0838,0.0848,0.0798,0.0802,0.0805,0.0748,0,-0.0282,-0.0316,-0.0329,-0.0361,-0.0337,-0.0352,-0.0286,-0.022,-0.0202,-0.0142,0.0059,0.0191,0.0356,0.0443,0.0495,0.0699,0.062,0.0647,0.0565,0.0687,0.0646,0.0656,0.0544,0.0544,0.0544,0.0545,0,0,-0.024,-0.0289,-0.0284,-0.0318,-0.0325,-0.0309,-0.0327,-0.0263,-0.023,-0.0156,-0.0227,0.0065,0.0167,0.0429,0.0481,0.0541,0.0508,0.0472,0.0654,0.0665,0.0677,0.0641,0.065,0.0545,0.0545,0.0546,0.0546,0,-0.0244,-0.0256,-0.0286,-0.0292,-0.0324,-0.0311,-0.0315,-0.0326,-0.0298,-0.0234,-0.0162,-0.0028,0.0093,0.0243,0.0334,0.0517,0.0457,0.0553,0.0582,0.0653,0.0664,0.0674,0.0641,0.0649,0.0546,0.0546,0.0546,0,-0.0238,-0.0268,-0.0279,-0.0302,-0.0318,-0.0322,-0.0349,-0.036,-0.0329,-0.031,-0.025,-0.016,-0.0011,0.0128,0.0197,0.0166,0.0383,0.0352,0.0356,0.0374,0.0445,0.046,0.0474,0.0279,0.0277,0.0275,0,0,-0.0248,-0.0267,-0.0296,-0.0309,-0.0319,-0.0338,-0.0341,-0.0365,-0.034,-0.0332,-0.0296,-0.02,-0.0065,-0.0021,0.0093,0.0222,0.0231,0.0308,0.0321,0.0331,0.0352,0.0427,0.0444,0.0268,0.0268,0.0268,0,0,-0.0255,-0.0302,-0.0326,-0.0344,-0.0351,-0.0366,-0.037,-0.0384,-0.0341,-0.0354,-0.0316,-0.0299,-0.0167,-0.0108,-0.0211,0.0066,0.0032,0.0054,-0.0031,-0.0014,-0.0001,-0.0015,-0.0246,0,0,0,0,0,-0.029,-0.0292,-0.0313,-0.0322,-0.0353,-0.0348,-0.0347,-0.039,-0.0422,-0.0413,-0.0366,-0.0379,-0.0135,-0.0228,-0.0203,-0.0134,0.0173,0.019,0.0206,0.0133,0.0151,0.0166,0,0,0,0,0,0,-0.0294,-0.0305,-0.0313,-0.0332,-0.034,-0.0348,-0.0401,-0.041,-0.0425,-0.0435,-0.0385,-0.0377,-0.0355,-0.024,-0.0217,-0.0152,-0.0253,0.018,0.0194,0.0207,0.0139,0.0154,0.0166,0,0,0,0,0,-0.0297,-0.0306,-0.0359,-0.033,-0.0337,-0.0386,-0.0404,-0.0412,-0.042,-0.0384,-0.0381,-0.0461,-0.0353,-0.0333,-0.0226,-0.0163,-0.0269,-0.026,0.0189,0.0201,0.0211,0.0146,0,0,0,0,0,0,-0.03,-0.0286,-0.036,-0.0362,-0.0367,-0.0387,-0.0396,-0.0413,-0.0367,-0.0367,-0.0455,-0.0462,-0.035,-0.0336,-0.0321,-0.0168,-0.0281,-0.0273,-0.0268,0.0198,0.0207,0.0214,0,0,0,0,0,0,-0.0283,-0.0288,-0.036,-0.0404,-0.0411,-0.0387,-0.0396,-0.0297,-0.0362,-0.0437,-0.0445,-0.0458,-0.0354,-0.0337,-0.0325,-0.017,-0.0291,-0.0283,-0.0277,-0.0274,0.0205,0.0212,0,0,0,0,0,0,-0.0284,-0.0289,-0.0403,-0.0408,-0.0414,-0.0429,-0.0295,-0.0309,-0.0458,-0.0434,-0.0468,-0.0473,-0.0353,-0.0343,-0.0328,-0.0177,-0.0172,-0.0291,-0.0285,-0.0281,-0.0279,0,0,0,0,0,0,0,-0.0286,-0.0262,-0.0361,-0.0411,-0.0417,-0.038,-0.0379,-0.0379,-0.0459,-0.0463,-0.0467,-0.0471,-0.0337,-0.0328,-0.0319,-0.0184,0,0,-0.0291,-0.0288,0,0,0,0,0,0,0,0,-0.026,-0.0261,-0.0361,-0.0362,-0.0363,-0.038,-0.0379,-0.0379,-0.046,-0.0463,-0.0466,-0.0469,-0.0335,-0.0328,-0.032,0,0,0,0,0,0,0,0,0,0,0,0,0,0,0,-0.0361,-0.0362,0,-0.038,-0.0379,-0.0379,-0.046,-0.0463,-0.0466,-0.0468,-0.0333,-0.0327,-0.0321,0,0,0,0,0,0,0,0,0,0,0,0,0,0,0,0,0,0,0,0,0,0,0,0,0,0,0,0,0,0,0,0,0,0,0,0,0,0,0,0,0,0,0,0,0,0,0,0,0,0,0,0,0,0,0,0,0,0,0,0,0,0,0,0,0,0,0,0,0]}]],[[{"header":{"parameterUnit":"kt","parameterCategory":2,"dx":1,"dy":1,"la1":30.253999710083008,"la2":30.299108505249023,"lo1":-89.0895004272461,"lo2":-89.04439544677734,"nx":28,"ny":28,"refTime":"2022-10-12T21:00:00:Z","depth":"4","parameterNumber":2,"parameterNumberName":"U-component_of_CURRENTS"},"data":[-0.1521,-0.1544,-0.1551,-0.1452,-0.1422,-0.1469,-0.1561,-0.1692,-0.1663,-0.1843,-0.1832,-0.1959,-0.1951,-0.2082,-0.194,-0.1952,-0.1969,-0.2108,-0.2101,-0.2241,-0.2265,-0.2286,-0.2275,0,0,0,0,0,-0.1606,-0.1585,-0.1616,-0.1652,-0.1715,-0.1758,-0.1904,-0.2008,-0.2176,-0.2072,-0.2165,-0.2132,-0.2078,-0.213,-0.2008,-0.2198,-0.2226,-0.2047,-0.2158,-0.2256,-0.2282,-0.2263,0,0,0,0,0,0,-0.1717,-0.1723,-0.1822,-0.1872,-0.1946,-0.1954,-0.2047,-0.2082,-0.2136,-0.2294,-0.2271,-0.2341,-0.2456,-0.2359,-0.2316,-0.2251,-0.2219,-0.2145,-0.2175,-0.22,-0.2163,-0.2073,-0.1819,0,0,0,0,0,-0.1817,-0.1903,-0.1976,-0.2056,-0.2135,-0.2194,-0.229,-0.2294,-0.2444,-0.2581,-0.2534,-0.2509,-0.2493,-0.2483,-0.244,-0.239,-0.2567,-0.247,-0.2483,-0.251,-0.2464,-0.244,-0.2454,-0.2381,-0.2384,-0.2386,-0.2387,0,-0.1932,-0.1979,-0.2164,-0.22,-0.229,-0.2393,-0.2444,-0.2602,-0.2624,-0.2742,-0.2721,-0.2777,-0.2811,-0.2631,-0.2708,-0.2622,-0.2606,-0.2537,-0.2566,-0.2507,-0.2474,-0.2483,-0.249,-0.2408,-0.2406,-0.2405,-0.2403,0,-0.198,-0.211,-0.2206,-0.2385,-0.2433,-0.2486,-0.2631,-0.2658,-0.2776,-0.2794,-0.2822,-0.2921,-0.2914,-0.2944,-0.2941,-0.2855,-0.2777,-0.2709,-0.2919,-0.289,-0.2528,-0.2527,-0.2442,-0.2435,-0.2428,-0.2423,-0.2418,0,-0.209,-0.2157,-0.2335,-0.2387,-0.2464,-0.2596,-0.2665,-0.2736,-0.2823,-0.2833,-0.2934,-0.2936,-0.3025,-0.3023,-0.3006,-0.2888,-0.3001,-0.2786,-0.2742,-0.2971,-0.2968,-0.2928,-0.2919,-0.3007,-0.3007,-0.3008,-0.3009,0,-0.2108,-0.2268,-0.2356,-0.2413,-0.2569,-0.2632,-0.2708,-0.2793,-0.2827,-0.2903,-0.2927,-0.2975,-0.3003,-0.3016,-0.3005,-0.3016,-0.3001,-0.2997,-0.2787,-0.277,-0.2928,-0.2919,-0.3009,-0.3009,-0.301,-0.301,-0.301,0,-0.2188,-0.2269,-0.2385,-0.2509,-0.2549,-0.2625,-0.2724,-0.2788,-0.2854,-0.2892,-0.2934,-0.2944,-0.2984,-0.2993,-0.3008,-0.3016,-0.2995,-0.2978,-0.2974,-0.2749,-0.2679,-0.2781,-0.2882,-0.2882,-0.2881,-0.2881,-0.2881,0,-0.2167,-0.2288,-0.2367,-0.2477,-0.2545,-0.264,-0.2704,-0.2775,-0.2825,-0.2865,-0.289,-0.2913,-0.2926,-0.2933,-0.2967,-0.2942,-0.2953,-0.2957,-0.2878,-0.2874,-0.2676,-0.2723,-0.2963,-0.2877,-0.2878,-0.2878,-0.2878,0,-0.2136,-0.2297,-0.2315,-0.2372,-0.2515,-0.2561,-0.2653,-0.2725,-0.2761,-0.2832,-0.2861,-0.2894,-0.2896,-0.2884,-0.2867,-0.2889,-0.2937,-0.2869,-0.2867,-0.2816,-0.2942,-0.2741,-0.2723,-0.2955,-0.2957,-0.2958,-0.2876,0,-0.2158,-0.2242,-0.2287,-0.2397,-0.2459,-0.254,-0.2617,-0.2672,-0.2724,-0.2746,-0.2795,-0.2786,-0.2785,-0.28,-0.2773,-0.2823,-0.2783,-0.2775,-0.271,-0.2794,-0.2743,-0.2745,-0.2684,-0.2682,-0.268,-0.2679,0,0,-0.21,-0.2185,-0.2251,-0.2322,-0.2383,-0.2455,-0.2522,-0.2563,-0.2628,-0.2643,-0.2656,-0.2673,-0.2657,-0.2661,-0.2697,-0.2687,-0.2671,-0.2661,-0.2756,-0.2765,-0.2773,-0.273,-0.2734,-0.2676,-0.2675,-0.2675,-0.2674,0,-0.209,-0.2171,-0.2227,-0.2289,-0.2394,-0.2426,-0.2466,-0.2538,-0.2566,-0.2621,-0.2595,-0.2614,-0.2613,-0.259,-0.2577,-0.266,-0.26,-0.267,-0.2724,-0.2741,-0.2753,-0.2762,-0.2722,-0.2727,-0.267,-0.267,-0.267,0,-0.2064,-0.2128,-0.2166,-0.2269,-0.232,-0.2382,-0.2386,-0.2467,-0.2511,-0.2458,-0.2511,-0.25,-0.2466,-0.2488,-0.2501,-0.2467,-0.2525,-0.2511,-0.252,-0.2512,-0.2525,-0.2539,-0.2551,-0.2389,-0.2388,-0.2388,0,0,-0.2056,-0.212,-0.2203,-0.2272,-0.2313,-0.2366,-0.2404,-0.2432,-0.2457,-0.2468,-0.2458,-0.2451,-0.2446,-0.2444,-0.2433,-0.2452,-0.2419,-0.2479,-0.2492,-0.2503,-0.2501,-0.2517,-0.2531,-0.2385,-0.2385,-0.2385,0,0,-0.204,-0.2139,-0.2172,-0.2253,-0.2314,-0.2354,-0.2396,-0.2421,-0.2437,-0.245,-0.2404,-0.2397,-0.2431,-0.2398,-0.2368,-0.2414,-0.2358,-0.2363,-0.2431,-0.2447,-0.246,-0.2458,-0.2294,0,0,0,0,0,-0.208,-0.2131,-0.2161,-0.2186,-0.2286,-0.2348,-0.2357,-0.2387,-0.2402,-0.2425,-0.2419,-0.2377,-0.2374,-0.2344,-0.2337,-0.2376,-0.2349,-0.2355,-0.2361,-0.2454,-0.2471,-0.2486,0,0,0,0,0,0,-0.209,-0.2117,-0.216,-0.2207,-0.2232,-0.2345,-0.2326,-0.2333,-0.2399,-0.2401,-0.2381,-0.2374,-0.2326,-0.2344,-0.2339,-0.2377,-0.2296,-0.2351,-0.2357,-0.2362,-0.246,-0.2474,-0.2486,0,0,0,0,0,-0.2098,-0.212,-0.2283,-0.2205,-0.2226,-0.2283,-0.2325,-0.233,-0.2375,-0.2343,-0.234,-0.2407,-0.2327,-0.2321,-0.234,-0.2381,-0.2299,-0.2297,-0.2355,-0.2359,-0.2363,-0.2467,0,0,0,0,0,0,-0.2104,-0.2093,-0.2286,-0.2293,-0.2205,-0.2277,-0.229,-0.2328,-0.2311,-0.2314,-0.2361,-0.2361,-0.2327,-0.2323,-0.2319,-0.2386,-0.2302,-0.23,-0.2299,-0.2358,-0.2361,-0.2364,0,0,0,0,0,0,-0.2083,-0.2098,-0.2289,-0.2288,-0.2294,-0.2271,-0.2283,-0.2266,-0.2308,-0.2324,-0.2328,-0.2361,-0.2324,-0.2324,-0.232,-0.2292,-0.2304,-0.2302,-0.2301,-0.23,-0.2361,-0.2363,0,0,0,0,0,0,-0.2089,-0.2102,-0.2285,-0.229,-0.2295,-0.236,-0.225,-0.2337,-0.236,-0.2321,-0.236,-0.236,-0.2324,-0.2322,-0.2322,-0.2295,-0.2293,-0.2304,-0.2303,-0.2302,-0.2301,0,0,0,0,0,0,0,-0.2094,-0.2006,-0.2265,-0.2291,-0.2295,-0.236,-0.236,-0.236,-0.236,-0.236,-0.236,-0.236,-0.2314,-0.2312,-0.231,-0.2297,0,0,-0.2304,-0.2303,0,0,0,0,0,0,0,0,-0.2,-0.2004,-0.2265,-0.2268,-0.227,-0.236,-0.236,-0.236,-0.236,-0.236,-0.236,-0.236,-0.2313,-0.2312,-0.231,0,0,0,0,0,0,0,0,0,0,0,0,0,0,0,-0.2266,-0.2268,0,-0.236,-0.236,-0.236,-0.236,-0.236,-0.236,-0.236,-0.2313,-0.2311,-0.231,0,0,0,0,0,0,0,0,0,0,0,0,0,0,0,0,0,0,0,0,0,0,0,0,0,0,0,0,0,0,0,0,0,0,0,0,0,0,0,0,0,0,0,0,0,0,0,0,0,0,0,0,0,0,0,0,0,0,0,0,0,0,0,0,0,0,0,0,0]}],[{"header":{"parameterUnit":"kt","parameterCategory":2,"dx":1,"dy":1,"la1":30.253999710083008,"la2":30.299108505249023,"lo1":-89.0895004272461,"lo2":-89.04439544677734,"nx":28,"ny":28,"refTime":"2022-10-12T21:00:00:Z","depth":"4","parameterNumber":3,"parameterNumberName":"V-component_of_CURRENTS"},"data":[-0.0707,-0.0814,-0.0878,-0.1017,-0.1099,-0.1219,-0.1268,-0.1257,-0.1158,-0.108,-0.0811,-0.0733,-0.0281,-0.0403,0.0115,0.0177,0.0189,0.0612,0.0613,0.0652,0.0653,0.0654,0.046,0,0,0,0,0,-0.0694,-0.0765,-0.0882,-0.1009,-0.1126,-0.1182,-0.126,-0.128,-0.1252,-0.1106,-0.105,-0.0727,-0.0329,-0.0129,0.0105,0.0149,0.0453,0.0409,0.0429,0.0653,0.0654,0.0465,0,0,0,0,0,0,-0.0676,-0.0746,-0.0843,-0.0955,-0.1074,-0.1159,-0.1207,-0.1184,-0.1192,-0.1075,-0.0983,-0.0642,-0.043,-0.0072,0.0206,0.044,0.0452,0.0434,0.0446,0.045,0.0269,0.0127,0.0291,0,0,0,0,0,-0.0646,-0.0686,-0.0772,-0.09,-0.0991,-0.1097,-0.117,-0.1194,-0.1188,-0.1164,-0.0955,-0.074,-0.0397,-0.0048,0.0248,0.0501,0.0572,0.0661,0.0662,0.0539,0.0457,0.0485,0.0465,0.0657,0.0657,0.0657,0.0657,0,-0.0588,-0.0642,-0.0771,-0.0837,-0.0885,-0.0987,-0.1051,-0.1085,-0.1106,-0.1016,-0.0991,-0.0732,-0.0576,-0.0066,0.0178,0.0556,0.0576,0.0664,0.0532,0.0456,0.0489,0.0468,0.0447,0.0658,0.0658,0.0658,0.0658,0,-0.0555,-0.0593,-0.07,-0.0792,-0.0827,-0.0902,-0.0992,-0.1033,-0.1012,-0.1004,-0.0987,-0.0803,-0.05,-0.0239,0.0134,0.022,0.0477,0.0552,0.0453,0.0496,0.0461,0.044,0.0659,0.0659,0.0658,0.0658,0.0658,0,-0.0501,-0.0574,-0.0639,-0.0692,-0.0797,-0.0824,-0.0906,-0.0919,-0.0916,-0.0921,-0.0824,-0.0761,-0.0503,-0.0284,-0.0083,0.0187,0.0262,0.0305,0.036,0.0274,0.0256,0.0331,0.0317,0.043,0.0428,0.0426,0.0424,0,-0.0427,-0.0523,-0.0606,-0.0639,-0.0717,-0.0765,-0.0802,-0.0811,-0.0841,-0.0791,-0.0774,-0.0641,-0.0555,-0.0345,-0.0111,-0.0142,0.0222,0.0215,0.0296,0.0294,0.0314,0.0303,0.0422,0.0422,0.0421,0.042,0.042,0,-0.0374,-0.0424,-0.0524,-0.0609,-0.0629,-0.0681,-0.0738,-0.0774,-0.0747,-0.0734,-0.0686,-0.0628,-0.0528,-0.0486,-0.0214,-0.029,-0.0138,-0.0018,-0.0004,-0.0029,-0.0003,0.0109,0.0159,0.0156,0.0153,0.015,0.0148,0,-0.031,-0.0394,-0.0398,-0.0498,-0.0548,-0.0547,-0.0597,-0.0615,-0.0608,-0.0611,-0.0551,-0.0556,-0.0521,-0.0514,-0.0416,-0.028,-0.0179,-0.0309,0.0017,0.0026,-0.0031,0.0006,-0.0162,0.0105,0.011,0.0114,0.0117,0,-0.025,-0.0291,-0.0302,-0.0346,-0.0374,-0.0404,-0.045,-0.0482,-0.0504,-0.0501,-0.0518,-0.0529,-0.0481,-0.0479,-0.0454,-0.0363,-0.0237,-0.0301,-0.0293,-0.0189,0.0036,-0.0035,-0.0016,-0.0179,-0.0176,-0.0173,0.0087,0,-0.0223,-0.0252,-0.0263,-0.0297,-0.0318,-0.0347,-0.0358,-0.0379,-0.0384,-0.0389,-0.0403,-0.039,-0.0396,-0.0399,-0.0398,-0.0352,-0.0306,-0.028,-0.0235,-0.0237,-0.0125,-0.0102,-0.0352,-0.0351,-0.0349,-0.0349,0,0,-0.0173,-0.0197,-0.0166,-0.0199,-0.0224,-0.0195,-0.0243,-0.0254,-0.0285,-0.0297,-0.0289,-0.0314,-0.0313,-0.0333,-0.0356,-0.0352,-0.0266,-0.0347,-0.0258,-0.0249,-0.024,-0.0133,-0.0113,-0.0347,-0.0346,-0.0346,-0.0345,0,-0.0158,-0.0141,-0.0156,-0.017,-0.0175,-0.0184,-0.0187,-0.0206,-0.022,-0.0263,-0.0257,-0.0259,-0.0294,-0.0295,-0.0298,-0.0338,-0.0249,-0.0342,-0.0371,-0.0253,-0.0246,-0.0238,-0.0132,-0.0115,-0.0343,-0.0343,-0.0343,0,-0.0129,-0.0125,-0.0126,-0.0133,-0.0139,-0.0172,-0.0146,-0.0157,-0.0195,-0.0171,-0.0229,-0.0223,-0.0222,-0.0255,-0.0263,-0.0246,-0.021,-0.0271,-0.0276,-0.0269,-0.0144,-0.0136,-0.013,-0.0207,-0.0206,-0.0206,0,0,-0.012,-0.0119,-0.0122,-0.0131,-0.0132,-0.0141,-0.0148,-0.0153,-0.0168,-0.0176,-0.019,-0.0198,-0.0212,-0.0217,-0.0228,-0.0247,-0.0167,-0.0257,-0.0264,-0.0269,-0.0265,-0.0143,-0.0137,-0.0205,-0.0205,-0.0205,0,0,-0.0121,-0.0115,-0.0112,-0.012,-0.013,-0.0145,-0.0153,-0.0156,-0.0175,-0.0174,-0.0175,-0.0177,-0.0204,-0.019,-0.0182,-0.0218,-0.0188,-0.019,-0.0238,-0.0245,-0.0252,-0.0248,-0.0164,0,0,0,0,0,-0.0105,-0.0113,-0.0109,-0.011,-0.0126,-0.0143,-0.0147,-0.0156,-0.0151,-0.0163,-0.0175,-0.0159,-0.0191,-0.0184,-0.0185,-0.0206,-0.0196,-0.0197,-0.0199,-0.0265,-0.0273,-0.028,0,0,0,0,0,0,-0.0106,-0.0107,-0.0109,-0.0121,-0.0125,-0.0143,-0.014,-0.0143,-0.015,-0.0151,-0.016,-0.016,-0.0162,-0.0183,-0.0183,-0.0204,-0.0164,-0.0196,-0.0198,-0.0199,-0.0268,-0.0274,-0.028,0,0,0,0,0,-0.0106,-0.0107,-0.0127,-0.0122,-0.0125,-0.0136,-0.014,-0.0143,-0.0153,-0.0154,-0.0155,-0.0157,-0.0163,-0.0163,-0.0183,-0.0205,-0.0163,-0.0163,-0.0197,-0.0198,-0.02,-0.0271,0,0,0,0,0,0,-0.0106,-0.0119,-0.0129,-0.013,-0.0117,-0.0136,-0.0139,-0.0142,-0.0156,-0.0157,-0.0151,-0.0151,-0.0163,-0.0163,-0.0164,-0.0206,-0.0163,-0.0163,-0.0163,-0.0198,-0.0199,-0.02,0,0,0,0,0,0,-0.0118,-0.0121,-0.013,-0.0122,-0.0123,-0.0136,-0.0138,-0.0142,-0.0155,-0.0152,-0.0153,-0.015,-0.0151,-0.0163,-0.0164,-0.0171,-0.0162,-0.0162,-0.0163,-0.0163,-0.0199,-0.02,0,0,0,0,0,0,-0.012,-0.0122,-0.0122,-0.0123,-0.0124,-0.0145,-0.0139,-0.0151,-0.0162,-0.0152,-0.0161,-0.0161,-0.0151,-0.0152,-0.0164,-0.0171,-0.0171,-0.0162,-0.0162,-0.0163,-0.0163,0,0,0,0,0,0,0,-0.0121,-0.0103,-0.0114,-0.0124,-0.0125,-0.0143,-0.0144,-0.0145,-0.0162,-0.0161,-0.0161,-0.0161,-0.016,-0.0161,-0.0161,-0.0171,0,0,-0.0162,-0.0162,0,0,0,0,0,0,0,0,-0.0103,-0.0103,-0.0114,-0.0114,-0.0114,-0.0143,-0.0144,-0.0145,-0.0162,-0.0161,-0.0161,-0.0161,-0.0161,-0.0161,-0.0161,0,0,0,0,0,0,0,0,0,0,0,0,0,0,0,-0.0114,-0.0114,0,-0.0143,-0.0144,-0.0144,-0.0162,-0.0161,-0.0161,-0.0161,-0.0161,-0.0161,-0.0161,0,0,0,0,0,0,0,0,0,0,0,0,0,0,0,0,0,0,0,0,0,0,0,0,0,0,0,0,0,0,0,0,0,0,0,0,0,0,0,0,0,0,0,0,0,0,0,0,0,0,0,0,0,0,0,0,0,0,0,0,0,0,0,0,0,0,0,0,0]}]]]